DEMIK EDLW-EDHE

Flight info

Callsign DEMIK
Flight time 1h 10m
Altitude 17000
Route OSN8Q/06 OSN DCT EXPUH M170 STADE/N177VFR VFR DCT
Aircraft BT36/L-BDFGLORY/S

Departure

Time 2026-04-27 16:44
Airport Dortmund Airport (EDLW)

Arrival

Time 2026-04-27 17:55
Airport Uetersen-Heist Airfield (EDHE)
Time Latitude Longitude Altitude Speed Heading
2026-04-27 16:12 51.51217 7.60473 443 ft 0 kts 107°
2026-04-27 16:35 51.51213 7.60479 435 ft 4 kts 162°
2026-04-27 16:36 51.51220 7.60432 443 ft 6 kts 303°
2026-04-27 16:36 51.51197 7.60301 441 ft 17 kts 236°
2026-04-27 16:36 51.51156 7.60178 441 ft 11 kts 303°
2026-04-27 16:36 51.51220 7.60227 437 ft 17 kts 60°
2026-04-27 16:37 51.51298 7.60450 441 ft 28 kts 61°
2026-04-27 16:37 51.51380 7.60680 430 ft 24 kts 59°
2026-04-27 16:37 51.51454 7.60897 426 ft 21 kts 60°
2026-04-27 16:37 51.51510 7.61050 427 ft 10 kts 43°
2026-04-27 16:38 51.51570 7.61031 423 ft 10 kts 301°
2026-04-27 16:38 51.51555 7.60861 410 ft 17 kts 253°
2026-04-27 16:38 51.51525 7.60701 410 ft 13 kts 265°
2026-04-27 16:38 51.51584 7.60598 408 ft 10 kts 333°
2026-04-27 16:39 51.51612 7.60591 408 ft 0 kts 59°
2026-04-27 16:43 51.51636 7.60660 410 ft 34 kts 61°
2026-04-27 16:44 51.51845 7.61285 529 ft 78 kts 59°
2026-04-27 16:44 51.52090 7.62126 820 ft 92 kts 62°
2026-04-27 16:44 51.52398 7.63159 1144 ft 109 kts 65°
2026-04-27 16:44 51.52731 7.64305 1545 ft 116 kts 63°
2026-04-27 16:45 51.53090 7.65430 1943 ft 113 kts 62°
2026-04-27 16:45 51.53453 7.66532 2337 ft 111 kts 62°
2026-04-27 16:45 51.53807 7.67652 2728 ft 112 kts 62°
2026-04-27 16:45 51.54167 7.68769 3105 ft 112 kts 63°
2026-04-27 16:46 51.54535 7.69869 3482 ft 111 kts 61°
2026-04-27 16:46 51.54908 7.70953 3860 ft 114 kts 61°
2026-04-27 16:46 51.55295 7.72101 4238 ft 117 kts 61°
2026-04-27 16:46 51.55696 7.73227 4612 ft 119 kts 60°
2026-04-27 16:47 51.56107 7.74397 4992 ft 121 kts 61°
2026-04-27 16:47 51.56519 7.75588 5366 ft 123 kts 61°
2026-04-27 16:47 51.56949 7.76789 5744 ft 125 kts 53°
2026-04-27 16:47 51.57613 7.77666 6124 ft 125 kts 20°
2026-04-27 16:48 51.58459 7.77997 6516 ft 126 kts
2026-04-27 16:48 51.59344 7.78106 6839 ft 130 kts
2026-04-27 16:48 51.60267 7.78172 7141 ft 135 kts
2026-04-27 16:49 51.61865 7.78289 7649 ft 144 kts
2026-04-27 16:49 51.62736 7.78349 7914 ft 155 kts
2026-04-27 16:49 51.64228 7.78341 8342 ft 167 kts 353°
2026-04-27 16:49 51.65401 7.78123 8659 ft 173 kts 349°
2026-04-27 16:50 51.66206 7.77893 8881 ft 175 kts 346°
2026-04-27 16:50 51.67404 7.77455 9203 ft 178 kts 344°
2026-04-27 16:50 51.68592 7.76933 9519 ft 180 kts 342°
2026-04-27 16:50 51.69805 7.76402 9841 ft 181 kts 342°
2026-04-27 16:51 51.71028 7.75905 10182 ft 180 kts 344°
2026-04-27 16:51 51.72253 7.75489 10519 ft 179 kts 345°
2026-04-27 16:51 51.73473 7.75066 10860 ft 179 kts 344°
2026-04-27 16:51 51.74697 7.74645 11207 ft 180 kts 345°
2026-04-27 16:52 51.75924 7.74218 11555 ft 181 kts 344°
2026-04-27 16:52 51.77158 7.73799 11900 ft 181 kts 344°
2026-04-27 16:52 51.78395 7.73383 12263 ft 182 kts 344°
2026-04-27 16:52 51.79657 7.73142 12636 ft 185 kts 359°
2026-04-27 16:53 51.80934 7.73565 13000 ft 189 kts 12°
2026-04-27 16:53 51.82183 7.74196 13366 ft 192 kts 17°
2026-04-27 16:53 51.83397 7.75120 13740 ft 195 kts 29°
2026-04-27 16:53 51.84511 7.76393 14110 ft 197 kts 33°
2026-04-27 16:54 51.85617 7.77706 14448 ft 198 kts 33°
2026-04-27 16:54 51.86692 7.79104 14787 ft 200 kts 39°
2026-04-27 16:54 51.87715 7.80656 15125 ft 201 kts 39°
2026-04-27 16:54 51.88760 7.82166 15479 ft 202 kts 37°
2026-04-27 16:55 51.89810 7.83689 15832 ft 202 kts 37°
2026-04-27 16:55 51.90840 7.85205 16145 ft 205 kts 37°
2026-04-27 16:55 51.91908 7.86780 16404 ft 209 kts 37°
2026-04-27 16:55 51.92989 7.88376 16668 ft 212 kts 37°
2026-04-27 16:56 51.94086 7.89994 16932 ft 214 kts 37°
2026-04-27 16:56 51.95194 7.91629 17192 ft 216 kts 37°
2026-04-27 16:56 51.96309 7.93284 17210 ft 218 kts 37°
2026-04-27 16:56 51.97435 7.94948 17212 ft 220 kts 37°
2026-04-27 16:57 51.98564 7.96611 17216 ft 223 kts 37°
2026-04-27 16:57 51.99717 7.98318 17218 ft 225 kts 37°
2026-04-27 16:57 52.00876 8.00035 17221 ft 226 kts 37°
2026-04-27 16:57 52.02040 8.01760 17227 ft 227 kts 38°
2026-04-27 16:58 52.03209 8.03496 17235 ft 228 kts 38°
2026-04-27 16:58 52.04380 8.05233 17236 ft 228 kts 38°
2026-04-27 16:58 52.05552 8.06974 17232 ft 228 kts 38°
2026-04-27 16:58 52.06725 8.08718 17233 ft 228 kts 38°
2026-04-27 16:59 52.07879 8.10436 17232 ft 228 kts 38°
2026-04-27 16:59 52.09065 8.12201 17232 ft 228 kts 38°
2026-04-27 16:59 52.10219 8.13920 17233 ft 228 kts 38°
2026-04-27 16:59 52.11391 8.15668 17232 ft 228 kts 38°
2026-04-27 17:00 52.13335 8.18572 17231 ft 228 kts 38°
2026-04-27 17:00 52.14901 8.20910 17229 ft 228 kts 38°
2026-04-27 17:00 52.16071 8.22657 17230 ft 228 kts 38°
2026-04-27 17:01 52.17225 8.24385 17230 ft 228 kts 38°
2026-04-27 17:01 52.18393 8.26133 17231 ft 228 kts 38°
2026-04-27 17:01 52.19570 8.27898 17232 ft 228 kts 38°
2026-04-27 17:01 52.20871 8.29321 17228 ft 222 kts 21°
2026-04-27 17:02 52.22228 8.30467 17226 ft 223 kts 22°
2026-04-27 17:02 52.23598 8.31665 17232 ft 223 kts 23°
2026-04-27 17:02 52.24966 8.32859 17232 ft 222 kts 23°
2026-04-27 17:02 52.26331 8.34045 17229 ft 222 kts 22°
2026-04-27 17:03 52.27695 8.35229 17239 ft 222 kts 22°
2026-04-27 17:03 52.29062 8.36418 17237 ft 222 kts 22°
2026-04-27 17:03 52.30425 8.37605 17237 ft 222 kts 23°
2026-04-27 17:03 52.31789 8.38793 17236 ft 222 kts 22°
2026-04-27 17:04 52.33139 8.39967 17238 ft 222 kts 22°
2026-04-27 17:04 52.34500 8.41156 17237 ft 222 kts 22°
2026-04-27 17:04 52.35868 8.42351 17240 ft 222 kts 23°
2026-04-27 17:04 52.37230 8.43540 17244 ft 222 kts 23°
2026-04-27 17:05 52.38593 8.44734 17247 ft 222 kts 23°
2026-04-27 17:05 52.39957 8.45929 17248 ft 222 kts 23°
2026-04-27 17:05 52.41323 8.47125 17247 ft 222 kts 23°
2026-04-27 17:05 52.42669 8.48305 17245 ft 222 kts 23°
2026-04-27 17:06 52.44030 8.49500 17245 ft 222 kts 23°
2026-04-27 17:06 52.45399 8.50704 17247 ft 222 kts 23°
2026-04-27 17:06 52.46761 8.51900 17250 ft 222 kts 24°
2026-04-27 17:06 52.48123 8.53098 17252 ft 222 kts 24°
2026-04-27 17:07 52.49484 8.54296 17248 ft 222 kts 24°
2026-04-27 17:07 52.50843 8.55494 17251 ft 221 kts 24°
2026-04-27 17:07 52.52204 8.56694 17248 ft 221 kts 24°
2026-04-27 17:07 52.53562 8.57891 17253 ft 221 kts 24°
2026-04-27 17:08 52.54917 8.59087 17248 ft 221 kts 24°
2026-04-27 17:08 52.56273 8.60285 17250 ft 221 kts 24°
2026-04-27 17:08 52.57613 8.61469 17256 ft 221 kts 24°
2026-04-27 17:08 52.58973 8.62671 17244 ft 221 kts 24°
2026-04-27 17:09 52.60331 8.63872 17245 ft 221 kts 24°
2026-04-27 17:09 52.61690 8.65076 17250 ft 221 kts 24°
2026-04-27 17:09 52.63047 8.66277 17247 ft 221 kts 24°
2026-04-27 17:09 52.64401 8.67478 17257 ft 221 kts 24°
2026-04-27 17:10 52.65761 8.68684 17251 ft 221 kts 24°
2026-04-27 17:10 52.67119 8.69890 17253 ft 221 kts 24°
2026-04-27 17:10 52.68456 8.71077 17252 ft 221 kts 24°
2026-04-27 17:10 52.69809 8.72279 17253 ft 221 kts 26°
2026-04-27 17:11 52.71160 8.73483 17253 ft 220 kts 26°
2026-04-27 17:11 52.73852 8.75879 17262 ft 219 kts 26°
2026-04-27 17:11 52.75197 8.77077 17262 ft 220 kts 26°
2026-04-27 17:12 52.77887 8.79477 17262 ft 219 kts 26°
2026-04-27 17:12 52.79229 8.80677 17265 ft 219 kts 26°
2026-04-27 17:12 52.80575 8.81881 17266 ft 219 kts 26°
2026-04-27 17:13 52.81917 8.83081 17264 ft 219 kts 26°
2026-04-27 17:13 52.83258 8.84282 17267 ft 219 kts 26°
2026-04-27 17:13 52.84581 8.85467 17264 ft 219 kts 26°
2026-04-27 17:13 52.85922 8.86670 17264 ft 219 kts 26°
2026-04-27 17:14 52.87265 8.87875 17266 ft 219 kts 26°
2026-04-27 17:14 52.88612 8.89084 17266 ft 219 kts 26°
2026-04-27 17:14 52.89956 8.90291 17265 ft 219 kts 26°
2026-04-27 17:14 52.91278 8.91482 17265 ft 219 kts 26°
2026-04-27 17:15 52.92618 8.92687 17273 ft 219 kts 26°
2026-04-27 17:15 52.93957 8.93891 17270 ft 218 kts 26°
2026-04-27 17:15 52.95291 8.95094 17270 ft 218 kts 26°
2026-04-27 17:15 52.96624 8.96296 17267 ft 218 kts 26°
2026-04-27 17:16 52.97957 8.97499 17265 ft 218 kts 26°
2026-04-27 17:16 52.99286 8.98698 17265 ft 217 kts 26°
2026-04-27 17:16 53.00617 8.99901 17266 ft 217 kts 26°
2026-04-27 17:16 53.01930 9.01089 17263 ft 217 kts 26°
2026-04-27 17:17 53.03258 9.02291 17268 ft 217 kts 26°
2026-04-27 17:17 53.04584 9.03493 17267 ft 217 kts 26°
2026-04-27 17:17 53.05911 9.04695 17264 ft 217 kts 26°
2026-04-27 17:18 53.08566 9.07104 17267 ft 217 kts 26°
2026-04-27 17:18 53.09894 9.08311 17261 ft 215 kts 26°
2026-04-27 17:18 53.11207 9.09510 16874 ft 213 kts 26°
2026-04-27 17:18 53.12476 9.10669 16486 ft 207 kts 26°
2026-04-27 17:19 53.13725 9.11802 16098 ft 201 kts 26°
2026-04-27 17:19 53.14944 9.12909 15713 ft 197 kts 26°
2026-04-27 17:19 53.16138 9.13995 15334 ft 194 kts 26°
2026-04-27 17:19 53.17318 9.15071 14959 ft 192 kts 26°
2026-04-27 17:20 53.18485 9.16135 14594 ft 190 kts 26°
2026-04-27 17:20 53.19644 9.17195 14231 ft 189 kts 26°
2026-04-27 17:20 53.20795 9.18245 13845 ft 188 kts 26°
2026-04-27 17:20 53.21922 9.19274 13445 ft 187 kts 26°
2026-04-27 17:21 53.23073 9.20327 13040 ft 186 kts 26°
2026-04-27 17:21 53.24202 9.21361 12649 ft 185 kts 26°
2026-04-27 17:21 53.25312 9.22378 12259 ft 184 kts 26°
2026-04-27 17:21 53.26428 9.23400 11879 ft 183 kts 25°
2026-04-27 17:22 53.27543 9.24422 11501 ft 182 kts 25°
2026-04-27 17:22 53.28651 9.25439 11126 ft 181 kts 25°
2026-04-27 17:22 53.29753 9.26451 10790 ft 178 kts 25°
2026-04-27 17:22 53.30834 9.27444 10494 ft 177 kts 24°
2026-04-27 17:23 53.31916 9.28435 10199 ft 177 kts 25°
2026-04-27 17:23 53.33000 9.29434 9884 ft 178 kts 25°
2026-04-27 17:23 53.34083 9.30429 9563 ft 177 kts 25°
2026-04-27 17:23 53.35146 9.31410 9255 ft 176 kts 25°
2026-04-27 17:24 53.36220 9.32400 8943 ft 176 kts 25°
2026-04-27 17:24 53.37291 9.33386 8638 ft 175 kts 25°
2026-04-27 17:24 53.38351 9.34363 8328 ft 173 kts 26°
2026-04-27 17:24 53.39404 9.35336 8022 ft 172 kts 26°
2026-04-27 17:25 53.40451 9.36302 7713 ft 171 kts 26°
2026-04-27 17:25 53.41494 9.37266 7422 ft 170 kts 26°
2026-04-27 17:25 53.42530 9.38224 7125 ft 170 kts 27°
2026-04-27 17:25 53.43565 9.39180 6828 ft 169 kts 27°
2026-04-27 17:26 53.44578 9.40119 6533 ft 168 kts 26°
2026-04-27 17:26 53.45612 9.41076 6213 ft 167 kts 27°
2026-04-27 17:26 53.46613 9.42002 5867 ft 167 kts 26°
2026-04-27 17:26 53.47626 9.42943 5491 ft 166 kts 26°
2026-04-27 17:27 53.48639 9.43883 5117 ft 166 kts 26°
2026-04-27 17:27 53.49642 9.44837 4733 ft 165 kts 29°
2026-04-27 17:27 53.50634 9.45804 4346 ft 164 kts 31°
2026-04-27 17:27 53.51590 9.46847 3962 ft 162 kts 33°
2026-04-27 17:28 53.52528 9.47844 3588 ft 160 kts 32°
2026-04-27 17:28 53.53472 9.48825 3228 ft 158 kts 33°
2026-04-27 17:28 53.55304 9.50666 2654 ft 147 kts 32°
2026-04-27 17:29 53.56164 9.51514 2479 ft 140 kts 32°
2026-04-27 17:29 53.56976 9.52306 2384 ft 131 kts 33°
2026-04-27 17:29 53.57695 9.53197 2241 ft 126 kts 42°
2026-04-27 17:29 53.58280 9.54253 2130 ft 122 kts 53°
2026-04-27 17:30 53.58612 9.55500 2109 ft 114 kts 76°
2026-04-27 17:30 53.58481 9.58097 1989 ft 113 kts 103°
2026-04-27 17:30 53.58233 9.59373 1902 ft 116 kts 105°
2026-04-27 17:31 53.57934 9.60628 1856 ft 116 kts 111°
2026-04-27 17:31 53.57569 9.61853 1834 ft 117 kts 114°
2026-04-27 17:31 53.57189 9.63079 1795 ft 118 kts 113°
2026-04-27 17:31 53.56815 9.64284 1793 ft 118 kts 115°
2026-04-27 17:32 53.56442 9.65501 1795 ft 116 kts 111°
2026-04-27 17:32 53.55874 9.68012 1763 ft 115 kts 103°
2026-04-27 17:32 53.55673 9.69342 1695 ft 117 kts 99°
2026-04-27 17:33 53.55510 9.70671 1582 ft 115 kts 99°
2026-04-27 17:33 53.55326 9.71990 1447 ft 116 kts 101°
2026-04-27 17:33 53.55130 9.73315 1326 ft 116 kts 99°
2026-04-27 17:33 53.54958 9.74623 1233 ft 113 kts 98°
2026-04-27 17:34 53.54791 9.75902 1137 ft 111 kts 99°
2026-04-27 17:34 53.54630 9.77167 1027 ft 110 kts 97°
2026-04-27 17:34 53.54492 9.78421 969 ft 107 kts 94°
2026-04-27 17:34 53.54448 9.79239 914 ft 106 kts 90°
2026-04-27 17:35 53.54439 9.80463 857 ft 105 kts 88°
2026-04-27 17:35 53.54437 9.82089 836 ft 105 kts 89°
2026-04-27 17:35 53.54397 9.83313 855 ft 104 kts 91°
2026-04-27 17:35 53.54320 9.84509 856 ft 103 kts 92°
2026-04-27 17:36 53.54273 9.85308 849 ft 104 kts 92°
2026-04-27 17:36 53.54203 9.86523 837 ft 104 kts 91°
2026-04-27 17:36 53.54131 9.87733 818 ft 105 kts 91°
2026-04-27 17:36 53.54078 9.88949 837 ft 104 kts 90°
2026-04-27 17:37 53.54040 9.90141 837 ft 102 kts 90°
2026-04-27 17:37 53.54000 9.91337 809 ft 104 kts 88°
2026-04-27 17:37 53.53982 9.92564 805 ft 104 kts 86°
2026-04-27 17:37 53.53987 9.93361 854 ft 100 kts 85°
2026-04-27 17:38 53.53991 9.94391 922 ft 97 kts 84°
2026-04-27 17:38 53.54067 9.95506 946 ft 95 kts 69°
2026-04-27 17:38 53.54457 9.96325 1056 ft 89 kts 28°
2026-04-27 17:38 53.55066 9.96482 1086 ft 94 kts 354°
2026-04-27 17:39 53.55716 9.96147 1057 ft 99 kts 343°
2026-04-27 17:39 53.56369 9.95662 1025 ft 106 kts 337°
2026-04-27 17:39 53.57013 9.95112 1088 ft 97 kts 336°
2026-04-27 17:39 53.57593 9.94579 1078 ft 93 kts 335°
2026-04-27 17:40 53.58170 9.94115 1046 ft 92 kts 340°
2026-04-27 17:40 53.58761 9.93718 937 ft 89 kts 346°
2026-04-27 17:40 53.59356 9.93556 819 ft 84 kts
2026-04-27 17:40 53.59906 9.93633 661 ft 78 kts 14°
2026-04-27 17:41 53.60413 9.93948 463 ft 78 kts 33°
2026-04-27 17:41 53.60861 9.94499 369 ft 81 kts 37°
2026-04-27 17:41 53.61241 9.95201 263 ft 82 kts 48°
2026-04-27 17:41 53.61591 9.95908 156 ft 75 kts 49°
2026-04-27 17:42 53.61919 9.96559 54 ft 71 kts 48°
2026-04-27 17:42 53.62190 9.97104 34 ft 51 kts 51°
2026-04-27 17:42 53.62490 9.97712 72 ft 95 kts 49°
2026-04-27 17:42 53.62982 9.98666 403 ft 114 kts 49°
2026-04-27 17:43 53.63452 9.99752 738 ft 119 kts 69°
2026-04-27 17:43 53.63417 10.01143 1074 ft 125 kts 107°
2026-04-27 17:43 53.62883 10.02237 1179 ft 123 kts 143°
2026-04-27 17:43 53.62066 10.02593 1282 ft 122 kts 177°
2026-04-27 17:44 53.61212 10.02409 1269 ft 126 kts 189°
2026-04-27 17:44 53.60335 10.02077 1235 ft 131 kts 192°
2026-04-27 17:44 53.59452 10.01725 1271 ft 130 kts 190°
2026-04-27 17:44 53.58562 10.01395 1238 ft 133 kts 193°
2026-04-27 17:45 53.57682 10.00906 1271 ft 134 kts 203°
2026-04-27 17:45 53.56835 10.00239 1276 ft 134 kts 207°
2026-04-27 17:45 53.56007 9.99490 1282 ft 135 kts 210°
2026-04-27 17:45 53.55357 9.98359 1285 ft 136 kts 239°
2026-04-27 17:46 53.54915 9.96974 1278 ft 135 kts 249°
2026-04-27 17:46 53.54608 9.95483 1283 ft 135 kts 257°
2026-04-27 17:46 53.54407 9.93946 1282 ft 133 kts 263°
2026-04-27 17:46 53.54311 9.92390 1281 ft 133 kts 268°
2026-04-27 17:47 53.54236 9.90868 1278 ft 129 kts 271°
2026-04-27 17:47 53.54248 9.89880 1273 ft 126 kts 277°
2026-04-27 17:47 53.54345 9.87951 1281 ft 124 kts 278°
2026-04-27 17:47 53.54426 9.86507 1273 ft 123 kts 280°
2026-04-27 17:48 53.54565 9.85087 1275 ft 120 kts 287°
2026-04-27 17:48 53.54762 9.83736 1278 ft 120 kts 288°
2026-04-27 17:48 53.54964 9.82358 1280 ft 123 kts 287°
2026-04-27 17:48 53.55177 9.80941 1283 ft 127 kts 287°
2026-04-27 17:49 53.55401 9.79494 1287 ft 129 kts 288°
2026-04-27 17:49 53.55630 9.78036 1293 ft 129 kts 288°
2026-04-27 17:49 53.55838 9.76550 1290 ft 132 kts 282°
2026-04-27 17:49 53.56004 9.75025 1293 ft 133 kts 284°
2026-04-27 17:50 53.56192 9.73502 1288 ft 133 kts 284°
2026-04-27 17:50 53.56569 9.70490 1285 ft 132 kts 292°
2026-04-27 17:50 53.57187 9.69509 1278 ft 123 kts 351°
2026-04-27 17:51 53.57991 9.69621 1277 ft 111 kts 13°
2026-04-27 17:51 53.58691 9.69981 1271 ft 101 kts 20°
2026-04-27 17:51 53.59349 9.70339 1272 ft 97 kts 20°
2026-04-27 17:51 53.59983 9.70715 1236 ft 96 kts 22°
2026-04-27 17:52 53.60618 9.71107 1114 ft 98 kts 23°
2026-04-27 17:52 53.61271 9.71356 1075 ft 98 kts
2026-04-27 17:52 53.61930 9.71033 1015 ft 101 kts 333°
2026-04-27 17:52 53.62484 9.70268 896 ft 105 kts 318°
2026-04-27 17:53 53.62907 9.69334 823 ft 100 kts 303°
2026-04-27 17:53 53.63123 9.68333 659 ft 83 kts 294°
2026-04-27 17:53 53.63430 9.67624 498 ft 69 kts 334°
2026-04-27 17:53 53.63888 9.67464 359 ft 67 kts
2026-04-27 17:54 53.64346 9.67537 339 ft 65 kts 25°
2026-04-27 17:54 53.64651 9.68136 297 ft 77 kts 76°
2026-04-27 17:54 53.64700 9.68999 142 ft 72 kts 82°
2026-04-27 17:54 53.64680 9.69860 34 ft 71 kts 90°
2026-04-27 17:55 53.64654 9.70530 22 ft 42 kts 94°
2026-04-27 17:55 53.64639 9.70840 22 ft 12 kts 106°
2026-04-27 17:55 53.64593 9.70872 23 ft 10 kts 218°
2026-04-27 17:55 53.64558 9.70735 23 ft 18 kts 274°
2026-04-27 17:56 53.64565 9.70507 23 ft 14 kts 272°
2026-04-27 17:56 53.64525 9.70407 23 ft 9 kts 199°
2026-04-27 17:56 53.64475 9.70406 23 ft 6 kts 121°
2026-04-27 17:56 53.64498 9.70434 23 ft 5 kts 295°
2026-04-27 17:57 53.64499 9.70425 23 ft 0 kts 286°